[[{"header":{"parameterUnit":"m.s-1","parameterCategory":1,"la1":30.2991,"la2":30.254,"lo1":-89.0895,"lo2":-89.0444,"dy":0.0017,"dx":0.0017,"nx":28,"ny":28,"refTime":"2024-03-31T21:00:00:Z","depth":0,"parameterNumber":2,"parameterNumberName":"U-component_of_WINDS"},"data":[0,0,0,0,0,0,0,0,0,0,0,0,0,0,0,0,0,0,0,0,0,0,0,0,0,0,0,0,0,0,0,0,0,0,0,0,0,0,0,0,0,0,0,0,0,0,0,0,0,0,0,0,0,0,0,0,0,0,-2.8329,-2.833,0,-2.838,-2.8381,-2.8382,-2.8376,-2.8375,-2.8374,-2.8373,-2.8425,-2.8427,-2.8429,0,0,0,0,0,0,0,0,0,0,0,0,0,-2.8226,-2.8227,-2.8329,-2.833,-2.833,-2.838,-2.8381,-2.8382,-2.8376,-2.8375,-2.8374,-2.8373,-2.8424,-2.8426,-2.8429,0,0,0,0,0,0,0,0,0,0,0,0,0,-2.8273,-2.8228,-2.8329,-2.8334,-2.8334,-2.838,-2.8381,-2.8382,-2.8376,-2.8375,-2.8374,-2.8373,-2.8423,-2.8426,-2.8429,-2.8473,0,0,-2.8439,-2.844,0,0,0,0,0,0,0,0,-2.827,-2.8277,-2.8332,-2.8333,-2.8334,-2.837,-2.8363,-2.8413,-2.8376,-2.836,-2.8373,-2.8372,-2.8408,-2.8412,-2.8424,-2.8476,-2.8478,-2.8439,-2.8441,-2.8443,-2.8444,0,0,0,0,0,0,0,-2.8267,-2.8275,-2.8349,-2.8333,-2.8334,-2.8333,-2.8338,-2.8373,-2.839,-2.8362,-2.8361,-2.8368,-2.8408,-2.8421,-2.8425,-2.8479,-2.8439,-2.8442,-2.8444,-2.8445,-2.8569,-2.8571,0,0,0,0,0,0,-2.8263,-2.8272,-2.8348,-2.8351,-2.8299,-2.8336,-2.8342,-2.836,-2.839,-2.8393,-2.8368,-2.8367,-2.8416,-2.8422,-2.8427,-2.848,-2.8443,-2.8446,-2.8447,-2.8568,-2.857,-2.8571,0,0,0,0,0,0,-2.8261,-2.827,-2.8346,-2.8311,-2.8321,-2.8339,-2.8359,-2.8362,-2.8375,-2.8395,-2.8398,-2.8379,-2.8416,-2.8423,-2.8462,-2.8482,-2.8447,-2.845,-2.8566,-2.8568,-2.857,-2.8587,0,0,0,0,0,0,-2.8258,-2.8269,-2.8286,-2.8312,-2.8323,-2.838,-2.8361,-2.8364,-2.8381,-2.8379,-2.8405,-2.8409,-2.8415,-2.8457,-2.8465,-2.8486,-2.8452,-2.8565,-2.8567,-2.857,-2.8584,-2.8589,-2.8593,0,0,0,0,0,-2.8254,-2.8288,-2.8287,-2.8296,-2.8344,-2.8381,-2.8387,-2.8394,-2.8382,-2.8399,-2.8412,-2.8408,-2.8479,-2.8461,-2.847,-2.8492,-2.8563,-2.8566,-2.857,-2.8583,-2.8588,-2.8593,0,0,0,0,0,0,-2.8263,-2.8291,-2.829,-2.8334,-2.8355,-2.838,-2.8401,-2.84,-2.8425,-2.8422,-2.843,-2.8436,-2.8476,-2.8488,-2.8468,-2.8536,-2.8519,-2.8524,-2.8526,-2.8532,-2.8536,-2.8531,-2.8455,0,0,0,0,0,-2.827,-2.8298,-2.8321,-2.8358,-2.8368,-2.8383,-2.8399,-2.8403,-2.8425,-2.8434,-2.845,-2.8472,-2.8499,-2.8516,-2.8542,-2.8587,-2.8592,-2.8606,-2.8611,-2.8614,-2.8618,-2.8642,-2.8648,-2.8581,-2.8581,-2.8581,0,0,-2.8285,-2.8304,-2.8321,-2.836,-2.8377,-2.8405,-2.8391,-2.8421,-2.8442,-2.8439,-2.8477,-2.8489,-2.8514,-2.8556,-2.8575,-2.8567,-2.8638,-2.8618,-2.8621,-2.8623,-2.8646,-2.8652,-2.8658,-2.8583,-2.8583,-2.8583,0,0,-2.8326,-2.8344,-2.8376,-2.8393,-2.842,-2.8429,-2.8437,-2.8463,-2.8471,-2.851,-2.8508,-2.8533,-2.858,-2.8597,-2.8612,-2.8662,-2.8658,-2.867,-2.8692,-2.8715,-2.8721,-2.8725,-2.8742,-2.8748,-2.8674,-2.8674,-2.8674,0,-2.8341,-2.8384,-2.8392,-2.8423,-2.844,-2.844,-2.8472,-2.8488,-2.8522,-2.8533,-2.8524,-2.8583,-2.86,-2.8646,-2.8658,-2.8671,-2.8679,-2.8666,-2.8719,-2.8724,-2.8728,-2.8744,-2.8751,-2.8675,-2.8675,-2.8675,-2.8675,0,-2.84,-2.843,-2.8453,-2.8485,-2.8505,-2.8536,-2.8549,-2.8569,-2.8571,-2.8582,-2.8622,-2.8642,-2.8672,-2.8684,-2.8686,-2.873,-2.8724,-2.8718,-2.87,-2.8736,-2.8751,-2.8757,-2.8677,-2.8677,-2.8676,-2.8676,0,0,-2.8447,-2.8485,-2.8493,-2.8507,-2.8537,-2.856,-2.8592,-2.8622,-2.8637,-2.8661,-2.8687,-2.8727,-2.8721,-2.8738,-2.8744,-2.8764,-2.8801,-2.8755,-2.8755,-2.8762,-2.885,-2.8854,-2.8861,-2.88,-2.8801,-2.8802,-2.8848,0,-2.849,-2.8546,-2.8555,-2.8604,-2.8631,-2.8632,-2.8659,-2.868,-2.8692,-2.8716,-2.8729,-2.8757,-2.8747,-2.8758,-2.8779,-2.8792,-2.8819,-2.879,-2.8824,-2.8825,-2.8816,-2.8869,-2.8873,-2.8914,-2.8854,-2.8855,-2.8855,0,-2.8547,-2.8572,-2.8624,-2.865,-2.8662,-2.8686,-2.8714,-2.8738,-2.8763,-2.8769,-2.8789,-2.8792,-2.8825,-2.8808,-2.8853,-2.8833,-2.8848,-2.8857,-2.8859,-2.886,-2.8841,-2.8871,-2.8928,-2.8934,-2.8865,-2.8864,-2.8864,0,-2.8574,-2.8621,-2.8658,-2.8671,-2.8703,-2.872,-2.8734,-2.8757,-2.8774,-2.8799,-2.8811,-2.884,-2.8855,-2.8877,-2.8887,-2.8874,-2.8932,-2.8916,-2.8937,-2.8937,-2.8948,-2.8946,-2.9006,-2.896,-2.896,-2.896,-2.896,0,-2.862,-2.8651,-2.8671,-2.8693,-2.8728,-2.8739,-2.8773,-2.8787,-2.8808,-2.8833,-2.8836,-2.8859,-2.8873,-2.8898,-2.8907,-2.8942,-2.895,-2.8956,-2.8957,-2.8954,-2.8953,-2.8963,-2.8959,-2.8962,-2.8961,-2.8961,-2.8961,0,-2.8656,-2.867,-2.871,-2.8737,-2.8745,-2.8769,-2.8792,-2.8814,-2.8826,-2.8858,-2.8866,-2.8885,-2.8915,-2.8928,-2.8966,-2.8971,-2.9012,-2.9012,-2.9003,-2.9003,-2.9024,-2.9021,-2.909,-2.91,-2.9049,-2.9049,-2.905,0,-2.8683,-2.8707,-2.8737,-2.8754,-2.8769,-2.8796,-2.8815,-2.8827,-2.8845,-2.8875,-2.8893,-2.8924,-2.8948,-2.8997,-2.9014,-2.9042,-2.9042,-2.9065,-2.9046,-2.9043,-2.9041,-2.9039,-2.9041,-2.9067,-2.9068,-2.9068,-2.9069,0,-2.873,-2.8737,-2.8763,-2.8791,-2.8813,-2.8836,-2.8859,-2.8873,-2.8889,-2.891,-2.8941,-2.896,-2.8998,-2.9028,-2.9058,-2.9072,-2.9073,-2.9075,-2.9081,-2.9077,-2.9071,-2.9073,-2.9011,-2.9072,-2.9072,-2.9072,-2.9071,-2.9071,-2.8762,-2.8783,-2.8807,-2.8836,-2.8855,-2.8876,-2.8898,-2.8913,-2.894,-2.8972,-2.8978,-2.901,-2.9035,-2.9075,-2.909,-2.9116,-2.9111,-2.912,-2.9122,-2.9124,-2.9124,-2.9068,-2.9122,-2.9122,-2.9122,-2.9122,-2.9122,0,-2.8808,-2.8824,-2.8851,-2.8883,-2.8905,-2.8905,-2.8931,-2.8949,-2.8978,-2.9001,-2.9026,-2.9061,-2.9091,-2.9111,-2.914,-2.9157,-2.9158,-2.9165,-2.9162,-2.9166,-2.9128,-2.9119,-2.9163,-2.9163,-2.9163,-2.9163,-2.9163,-2.9163,-2.8834,-2.887,-2.8879,-2.8925,-2.8941,-2.8973,-2.8987,-2.9007,-2.9025,-2.9065,-2.9089,-2.9102,-2.9124,-2.9155,-2.9182,-2.9187,-2.9197,-2.9204,-2.9208,-2.9173,-2.9168,-2.9164,-2.9155,-2.9206,-2.9206,-2.9243,-2.9244,-2.9244]},{"header":{"parameterUnit":"m.s-1","parameterCategory":1,"la1":30.2991,"la2":30.254,"lo1":-89.0895,"lo2":-89.0444,"dy":0.0017,"dx":0.0017,"nx":28,"ny":28,"refTime":"2024-03-31T21:00:00:Z","depth":0,"parameterNumber":3,"parameterNumberName":"V-component_of_WINDS"},"data":[0,0,0,0,0,0,0,0,0,0,0,0,0,0,0,0,0,0,0,0,0,0,0,0,0,0,0,0,0,0,0,0,0,0,0,0,0,0,0,0,0,0,0,0,0,0,0,0,0,0,0,0,0,0,0,0,0,0,5.1534,5.1535,0,5.1576,5.1576,5.1577,5.1535,5.1533,5.1531,5.153,5.1569,5.1571,5.1574,0,0,0,0,0,0,0,0,0,0,0,0,0,5.1415,5.1418,5.1534,5.1535,5.1535,5.1576,5.1576,5.1577,5.1535,5.1533,5.1531,5.1529,5.1568,5.1571,5.1574,0,0,0,0,0,0,0,0,0,0,0,0,0,5.1463,5.1419,5.1534,5.1519,5.1518,5.1576,5.1576,5.1577,5.1535,5.1533,5.153,5.1528,5.1567,5.1571,5.1575,5.1647,0,0,5.1586,5.1588,0,0,0,0,0,0,0,0,5.146,5.1467,5.1521,5.152,5.1519,5.1548,5.1549,5.1601,5.1536,5.1529,5.153,5.1527,5.1564,5.1567,5.1581,5.1649,5.1651,5.1587,5.1589,5.1591,5.1592,0,0,0,0,0,0,0,5.1457,5.1465,5.155,5.1522,5.1521,5.151,5.1514,5.1558,5.1559,5.1529,5.1526,5.1532,5.1563,5.1577,5.1581,5.1652,5.1587,5.159,5.1592,5.1594,5.1785,5.1787,0,0,0,0,0,0,5.1456,5.1463,5.1549,5.1552,5.1483,5.1514,5.1518,5.1541,5.1559,5.1559,5.1534,5.153,5.1572,5.1577,5.1582,5.1671,5.1591,5.1594,5.1596,5.1782,5.1785,5.1788,0,0,0,0,0,0,5.1453,5.1464,5.1547,5.1507,5.1516,5.1518,5.1544,5.1543,5.1557,5.1562,5.1562,5.1549,5.157,5.1577,5.1632,5.1672,5.1596,5.1599,5.1779,5.1783,5.1787,5.1847,0,0,0,0,0,0,5.145,5.1463,5.1492,5.1508,5.1519,5.1598,5.1547,5.1546,5.1565,5.156,5.1576,5.1576,5.1569,5.1627,5.1636,5.1676,5.1602,5.1775,5.178,5.1785,5.1842,5.1853,5.1863,0,0,0,0,0,5.1446,5.1506,5.1493,5.1504,5.1554,5.16,5.1606,5.1597,5.1568,5.1596,5.16,5.1576,5.1666,5.1633,5.1643,5.1684,5.1773,5.1779,5.1785,5.1837,5.1851,5.1863,0,0,0,0,0,0,5.1492,5.1507,5.1494,5.156,5.158,5.1593,5.1628,5.1611,5.1638,5.1632,5.1618,5.1622,5.1682,5.1688,5.1651,5.1757,5.1714,5.1723,5.1751,5.1764,5.1774,5.1772,5.1606,0,0,0,0,0,5.151,5.1547,5.1558,5.1616,5.1626,5.1626,5.1645,5.1637,5.1655,5.1663,5.167,5.1688,5.1721,5.1742,5.1772,5.1842,5.1846,5.1876,5.1886,5.1895,5.1902,5.1942,5.1956,5.1808,5.1808,5.1808,0,0,5.1548,5.1561,5.1584,5.1625,5.1639,5.1678,5.1633,5.1674,5.1703,5.1668,5.1723,5.1729,5.1748,5.1812,5.184,5.1819,5.1944,5.1902,5.1909,5.1913,5.195,5.1964,5.1976,5.1813,5.1812,5.1811,0,0,5.1636,5.1649,5.17,5.1715,5.1737,5.1737,5.1749,5.1766,5.1769,5.1823,5.1799,5.1832,5.1888,5.1903,5.1918,5.2015,5.1995,5.2025,5.208,5.2118,5.213,5.214,5.2177,5.219,5.2032,5.2033,5.2033,0,5.1679,5.1737,5.1727,5.1772,5.1792,5.1764,5.1816,5.183,5.1861,5.1875,5.1851,5.1922,5.1932,5.2001,5.2025,5.2037,5.2051,5.2023,5.2129,5.214,5.2149,5.2184,5.2197,5.2036,5.2036,5.2036,5.2035,0,5.179,5.1831,5.1869,5.1902,5.1925,5.1973,5.197,5.1995,5.1984,5.1986,5.2043,5.2055,5.2088,5.2103,5.2092,5.2171,5.2157,5.2132,5.2089,5.2167,5.2199,5.2212,5.2042,5.204,5.2039,5.2038,0,0,5.1908,5.1937,5.1951,5.1967,5.199,5.2021,5.2067,5.2102,5.2124,5.2146,5.2185,5.2234,5.2211,5.2229,5.2219,5.2253,5.2332,5.2224,5.2224,5.2245,5.2421,5.2441,5.2457,5.2318,5.232,5.2322,5.242,0,5.1999,5.2082,5.2076,5.2154,5.2192,5.2168,5.2208,5.2227,5.2231,5.2263,5.2266,5.2302,5.2268,5.2278,5.2311,5.2315,5.2367,5.2308,5.2355,5.2357,5.2353,5.2473,5.2494,5.2586,5.2432,5.2434,5.2436,0,5.2116,5.2145,5.2228,5.2248,5.2263,5.23,5.2332,5.2363,5.2384,5.2384,5.2405,5.2391,5.2438,5.2394,5.2459,5.2419,5.2438,5.2443,5.2446,5.2451,5.2402,5.2483,5.2614,5.2629,5.2455,5.2453,5.2452,0,5.2196,5.2255,5.2313,5.2327,5.2351,5.2378,5.2389,5.2408,5.2429,5.2457,5.2471,5.2502,5.252,5.2545,5.254,5.2508,5.2607,5.2562,5.2609,5.261,5.2632,5.2631,5.277,5.2641,5.2641,5.2641,5.2641,0,5.2299,5.2351,5.235,5.2386,5.2444,5.2436,5.2493,5.25,5.2518,5.2554,5.2534,5.2568,5.2559,5.2593,5.2589,5.2645,5.2652,5.2654,5.2652,5.2657,5.2657,5.267,5.2664,5.2645,5.2644,5.2643,5.2642,0,5.2399,5.24,5.2462,5.2481,5.2487,5.2529,5.2545,5.2578,5.2581,5.2628,5.2638,5.2641,5.2681,5.2678,5.2721,5.2719,5.2788,5.2778,5.2782,5.2781,5.2829,5.2825,5.2983,5.3003,5.286,5.2861,5.2862,0,5.2465,5.2506,5.2529,5.2554,5.2567,5.2606,5.2629,5.2622,5.2646,5.2674,5.2705,5.2743,5.2773,5.2837,5.2843,5.2877,5.2869,5.2921,5.2873,5.2877,5.2872,5.287,5.2875,5.2931,5.2933,5.2934,5.2935,0,5.2584,5.2583,5.2618,5.2654,5.2682,5.2709,5.2734,5.2754,5.275,5.2778,5.282,5.2843,5.2889,5.2928,5.296,5.2971,5.2953,5.295,5.2963,5.2969,5.2971,5.2973,5.281,5.2947,5.2946,5.2945,5.2944,5.2944,5.2671,5.2706,5.2729,5.2769,5.2787,5.2812,5.2845,5.2853,5.2887,5.2926,5.2919,5.2966,5.2987,5.3029,5.3043,5.3079,5.306,5.3078,5.3083,5.3089,5.3095,5.2964,5.3084,5.3084,5.3084,5.3083,5.3083,0,5.279,5.2804,5.2841,5.2878,5.2909,5.2891,5.2918,5.2945,5.2987,5.3009,5.304,5.3088,5.3125,5.3135,5.3171,5.3198,5.3191,5.3208,5.3207,5.321,5.3109,5.3095,5.3213,5.3213,5.3213,5.3213,5.3213,5.3213,5.2856,5.2916,5.2918,5.2987,5.3,5.3048,5.3065,5.3087,5.3105,5.3161,5.3192,5.3199,5.3216,5.3253,5.3287,5.3289,5.3304,5.3325,5.3324,5.323,5.3217,5.3204,5.3191,5.3328,5.3328,5.3422,5.3423,5.3423]}]]